Location: Caltech
(34.1382°N, 118.1253°W)
Time: 00:56:47
(UTC-07:00)

Cosmos 1943 Rocket - Visible Passes

Search period start: 28 June 2016 00:00
Search period end: 08 July 2016 00:00
Orbit: 812 x 844 km, 71.0° (Epoch: 27 June)

Date Brightness Start Highest point End Pass type
(mag) Time Alt. Az. Time Alt. Az. Time Alt. Az.
01 Jul 4.4 05:02:15 10° SSE 05:06:27 23° E 05:10:40 10° NE visible
02 Jul 4.5 04:43:33 10° SE 04:47:23 20° E 04:51:13 10° NE visible
03 Jul 4.6 04:24:55 10° SE 04:28:18 17° E 04:31:42 10° ENE visible
04 Jul 4.6 04:06:26 10° SE 04:09:14 14° E 04:12:03 10° ENE visible
05 Jul 4.7 03:48:12 10° ESE 03:50:10 12° E 03:52:09 10° ENE visible
06 Jul 2.2 05:08:32 10° SSW 05:14:02 80° WNW 05:19:36 10° NNE visible
07 Jul 2.2 04:49:23 10° SSW 04:54:53 89° ESE 05:00:27 10° NNE visible
